Location: Hines Observatory
(31.5604°N, 83.5172°W)
Time: 12:44:52
(UTC-04:00)

Daily predictions for brighter satellites

Satellite Brightness Start Highest point End
(mag) Time Altitude Azimuth Time Altitude Azimuth Time Altitude Azimuth
Cosmos 1937 Rocket 3.4 20:53:34 10° S 20:58:38 69° ESE 21:03:45 10° NNE
H-2A ROCKET BODY 0.9 20:57:44 10° WSW 20:59:42 47° S 21:03:48 10° E
GPS 2-04 Rocket1 3.5 20:58:34 10° W 21:02:17 46° N 21:05:49 10° ENE
Meteor 2-10 Rocket 4.0 20:56:50 10° N 21:02:34 55° E 21:08:10 10° SSE
HJ-1C 4.4 21:02:19 10° S 21:05:37 49° W 21:08:59 10° NNW
Resurs 1-3 3.6 21:05:08 10° SSE 21:09:27 66° ENE 21:13:49 10° N
Cosmos 2150 Rocket 4.1 21:05:46 10° SSW 21:11:10 88° E 21:16:31 10° NNE
Cosmos 1470 Rocket 3.7 21:07:06 10° S 21:11:34 85° W 21:16:04 10° N
Cosmos 2298 Rocket 4.2 21:06:34 10° SSW 21:11:51 80° WNW 21:17:09 10° NNE
Hubble Space Telescope 2.2 21:09:09 10° WSW 21:12:39 27° SSW 21:16:08 10° SE
Meteor 2-3 Rocket 3.9 21:10:54 10° S 21:16:27 53° E 21:21:57 10° NNE
Meteor 1-29 4.4 21:13:55 10° NE 21:16:29 19° E 21:18:51 11° SE
In-Cosmos 22 Rocket 4.5 21:14:22 10° S 21:20:07 80° W 21:25:58 10° N
Milstar 3 4.1 21:06:12 10° SW 21:21:00 52° SSE 21:29:06 10° E
Cosmos 2082 Rocket 2.9 21:17:29 10° NNW 21:23:00 55° WSW 21:28:31 10° S
Meteor 1-26 Rocket 4.5 21:18:30 10° N 21:24:02 52° E 21:29:39 10° SSE
Star 37E S/N 40062 3.2 21:23:59 10° W 21:25:53 48° S 21:28:22 15° ESE
Cosmos 2344 4.2 21:21:18 10° S 21:27:59 32° ESE 21:34:41 10° NE
Cosmos 1825 3.9 21:28:21 15° ESE 21:29:02 15° E 21:31:17 10° NE
Cosmos 1869 Rocket 4.3 21:26:37 10° SSE 21:30:26 32° E 21:34:18 10° NNE
Spot 2 Rocket 3.7 21:26:25 10° S 21:31:30 75° WSW 21:36:37 10° NNW
Cosmos 1833 Rocket 3.6 21:26:36 10° NNW 21:31:59 47° WSW 21:37:18 10° S
Tsikada Rocket 4.4 21:32:45 10° SSW 21:38:56 66° W 21:45:06 10° N
Helios 1B rocket 2.4 21:35:55 10° NNE 21:39:58 60° E 21:44:00 10° S
OAO 3 Copernicus 4.2 21:39:26 10° WSW 21:44:27 80° SSE 21:49:30 10° ENE
Cosmos 1892 3.3 21:42:08 10° SSW 21:45:57 59° W 21:49:45 10° N
USA 186 3.3 21:45:24 10° SSW 21:47:39 28° W 21:50:04 10° NW
ISS -0.9 21:47:17 10° W 21:49:47 20° NW 21:52:18 10° NNE
Cosmos 1943 Rocket 2.3 21:44:28 10° S 21:49:50 49° ESE 21:55:11 10° NNE
Cosmos 2221 Rocket 4.4 21:47:20 10° NNE 21:51:22 33° E 21:52:52 26° ESE
Delta 2 Rocket 4.4 21:47:25 10° W 21:53:41 53° S 21:58:16 23° ESE
Envisat 3.5 21:53:32 10° S 21:58:31 58° W 22:03:31 10° NNW
Cosmos 2263 4.1 21:53:29 10° SSW 21:59:15 80° ESE 22:05:00 10° NNE
Spot 1 4.3 21:56:21 23° SSE 21:59:15 69° ENE 22:04:11 10° N
Cosmos 1634 Rocket 4.0 21:55:36 10° N 22:01:54 72° E 22:06:36 19° SSE
CENTAUR R/B 2.3 21:56:19 10° SSW 22:02:06 87° ESE 22:08:39 10° NNE
Tiangong 2 2.2 21:59:32 10° NW 22:02:32 35° NNE 22:03:23 29° ENE
Cosmos 372 Rocket 4.0 21:57:55 10° S 22:02:55 56° ESE 22:07:55 10° NNE
Cosmos 1900 4.4 21:57:49 10° NNW 22:02:59 71° ENE 22:05:27 31° SE
CZ-3A R/B 2.5 22:01:29 10° WSW 22:04:10 18° SSW 22:04:10 18° SSW
COSMOS 2455 3.8 22:01:57 10° SW 22:07:43 49° WNW 22:13:32 10° NNE
Helios 1A 3.0 22:05:40 24° S 22:08:09 76° WSW 22:12:21 10° NNW
Cosmos 1340 4.2 22:06:18 10° NNE 22:08:45 21° ENE 22:08:45 21° ENE
SPOT 5 4.1 22:08:10 26° E 22:09:30 29° ENE 22:14:01 10° NNE
CZ-4B DEB 2.3 22:09:44 77° SE 22:09:54 85° ENE 22:12:50 10° N
Cosmos 2369 Rocket 2.9 22:05:55 10° SW 22:11:25 54° WNW 22:17:00 10° N
Cosmos 1125 Rocket 3.4 22:08:09 10° SSW 22:13:25 90° ESE 22:18:40 10° NNE
Resurs 01 Rocket 4.2 22:12:18 10° SW 22:15:13 17° W 22:18:10 10° NW
OAO 2 Rocket 3.8 22:12:16 10° W 22:17:04 45° SSW 22:18:25 36° SSE
SAR-Lupe-4 3.4 22:17:05 60° SSE 22:17:40 84° ENE 22:21:15 10° N
Delta 168 3.8 22:15:33 10° WSW 22:18:59 34° S 22:18:59 34° S
Lacrosse 5 rocket 3.9 22:19:36 10° W 22:22:12 19° NW 22:24:50 10° N
Cosmos 1606 2.8 22:20:11 10° N 22:23:46 56° ENE 22:23:46 56° ENE
Delta 7925 Rocket 3.9 22:20:35 10° SW 22:25:10 39° SSE 22:25:13 39° SSE
YAOGAN 6 3.7 22:23:54 27° SSW 22:25:28 42° W 22:29:01 10° NNW
Shenzhou-11 Module 2.6 22:23:03 10° NW 22:25:36 57° NW 22:25:36 57° NW
Cosmos 1346 Rocket 4.4 22:23:17 10° NNW 22:26:49 31° W 22:29:26 16° SSW
TRAILBLAZER 4.4 22:32:11 33° SSW 22:34:10 83° ESE 22:38:43 10° NNE
Cosmos 2279 Rocket 3.9 22:29:26 10° N 22:35:43 79° E 22:38:02 41° SSE
MetOp-B 4.0 22:35:41 50° SSE 22:37:07 79° ENE 22:42:29 10° N
SAR-Lupe-1 4.5 22:39:08 56° WSW 22:39:09 56° WSW 22:42:40 10° NNW
ATLAS 5 CENTAUR R/B 3.1 22:33:47 10° NNW 22:39:36 42° NE 22:41:08 36° E
Okean 1-7 3.5 22:37:24 10° NNW 22:41:43 57° W 22:42:45 44° SW
GPS 2-04 Rocket1 3.2 22:38:44 10° WNW 22:42:02 47° N 22:42:02 47° N
H-2A R/B 2.5 22:42:10 45° E 22:42:34 46° ENE 22:47:40 10° N
Meteor 1-27 Rocket 3.8 22:37:07 10° N 22:42:43 54° E 22:43:18 52° ESE
Meteor 1-10 Rocket 4.3 22:37:25 10° N 22:43:22 82° W 22:45:26 43° S
Cosmos 1656 Rocket 3.4 22:48:00 66° SE 22:48:27 69° ESE 22:53:56 10° NNE
ARGOS 3.0 22:47:36 62° SSE 22:48:33 83° ENE 22:53:55 10° N
Meteor 2-6 Rocket 4.4 22:46:15 10° NNW 22:52:13 75° W 22:54:02 46° SSW
Cosmos 158 Rocket 3.6 22:47:46 10° NNW 22:52:39 86° ENE 22:52:45 85° ESE
Cosmos 2180 Rocket 4.4 22:46:38 10° N 22:53:03 89° E 22:54:48 51° S
Cosmos 1408 4.5 22:52:26 23° WSW 22:53:38 28° W 22:56:53 10° NNW
Cosmos 1733 Rocket 3.4 23:01:47 60° NNW 23:01:47 60° NNW 23:05:24 10° N
Cosmos 1825 4.3 23:03:11 19° WSW 23:04:22 22° WNW 23:07:24 10° NNW
Cosmos 1782 4.3 23:01:11 10° NNW 23:04:44 32° W 23:04:51 32° W
ERS-1 Rocket 4.0 23:03:32 34° SW 23:04:47 40° W 23:09:31 10° NNW
SL-08 RB Rocket 3.9 23:07:02 71° WNW 23:07:02 71° WNW 23:11:22 10° NNW
Nimbus 7 Rocket 4.5 23:08:05 10° N 23:13:56 72° WNW 23:15:18 53° SW
Meteor 2-20 4.3 23:20:24 82° SSW 23:20:40 87° W 23:26:48 10° N
Mugunghwa Rocket 4.5 23:13:28 10° WSW 23:20:35 59° S 23:20:35 59° S
Meteor 2-20 Rocket 4.4 23:22:12 68° ENE 23:22:12 68° ENE 23:27:49 10° N
USA 215 3.1 23:22:28 73° ESE 23:23:07 83° NE 23:29:43 10° NW
Lacrosse 4 Rocket 2.8 23:22:51 10° NNW 23:25:48 40° NW 23:25:48 40° NW
Cosmos 2219 4.3 23:26:05 10° N 23:30:23 34° NE 23:30:23 34° NE
Terra 3.0 23:33:08 38° N 23:33:08 38° N 23:36:08 10° N
BREEZE-M DEB (TANK) 4.2 23:36:03 39° NE 23:36:03 39° NE 23:42:30 10° NE
SPOT 1/Viking Rocket 4.4 23:41:31 43° WNW 23:41:31 43° WNW 23:45:51 10° NNW
SME Rocket 4.5 23:43:23 58° ENE 23:43:23 58° ENE 23:51:26 10° N
H-2A R/B 4.4 23:53:59 19° N 23:53:59 19° N 23:55:15 10° N
